FW7738 Weather Reports


time (UTC)temp
C
wind
direction
speed
KPH
gust
KPH
rain 1hr
cm
rain 24hr
cm
rain mn
cm
humidity
%
barometer
mb
20260904174030 27 76 3.2 12.9 0.00 0.00 0.00 75 1016.8
20260904173026 28 86 1.6 9.7 0.00 0.00 0.00 75 1016.7
20260904172020 28 73 3.2 11.3 0.00 0.00 0.00 74 1016.7
20260904171016 28 58 1.6 6.4 0.00 0.00 0.00 74 1016.7
20260904170031 28 62 4.8 11.3 0.00 0.00 0.00 73 1016.7
20260904165027 28 54 4.8 9.7 0.00 0.00 0.00 73 1016.6
20260904164021 28 63 4.8 11.3 0.00 0.00 0.00 74 1016.7
20260904163017 28 99 9.7 16.1 0.00 0.00 0.00 74 1016.7
20260904162033 28 92 6.4 16.1 0.00 0.00 0.00 72 1016.8
20260904161028 28 76 6.4 17.7 0.00 0.00 0.00 73 1017.0
20260904160023 28 96 8.0 16.1 0.00 0.00 0.00 75 1017.0
20260904155018 28 86 6.4 12.9 0.00 0.00 0.00 73 1016.9
20260904154054 29 98 3.2 11.3 0.00 0.00 0.00 72 1016.7
20260904153028 28 93 9.7 20.9 0.00 0.00 0.00 73 1016.7
20260904152024 29 109 4.8 12.9 0.00 0.00 0.00 71 1016.7
20260904151019 28 93 8.0 17.7 0.00 0.00 0.00 72 1016.7
20260904150035 28 94 9.7 20.9 0.00 0.00 0.00 72 1016.8
20260904145029 28 86 8.0 24.1 0.00 0.00 0.00 73 1016.8
20260904144025 28 95 12.9 25.7 0.00 0.00 0.00 73 1016.7
20260904143040 28 110 12.9 24.1 0.00 0.00 0.00 74 1016.8
20260904142015 28 91 14.5 25.7 0.00 0.00 0.00 76 1016.7
20260904141032 28 98 14.5 27.4 0.00 0.00 0.00 73 1016.8
20260904140026 29 93 12.9 30.6 0.00 0.00 0.00 70 1017.0
20260904135041 30 117 11.3 20.9 0.00 0.00 0.00 66 1017.0
20260904134017 29 109 11.3 24.1 0.00 0.00 0.00 67 1017.0
20260904133033 30 108 9.7 22.5 0.00 0.00 0.00 67 1017.1
20260904132028 30 112 11.3 24.1 0.00 0.00 0.00 65 1017.3
20260904131103 30 99 8.0 22.5 0.00 0.00 0.00 64 1017.4
20260904130018 30 104 9.7 17.7 0.00 0.00 0.00 64 1017.5
20260904125034 30 118 11.3 24.1 0.00 0.00 0.00 64 1017.5
20260904124029 30 96 9.7 22.5 0.00 0.00 0.00 66 1017.4
20260904123024 30 122 9.7 17.7 0.00 0.00 0.00 64 1017.5
20260904122020 30 123 11.3 17.7 0.00 0.00 0.00 63 1017.5
20260904121035 30 135 11.3 17.7 0.00 0.00 0.00 66 1017.7
20260904120031 30 106 11.3 22.5 0.00 0.00 0.00 65 1017.7
20260904115025 30 142 9.7 16.1 0.00 0.00 0.00 65 1017.9
20260904114041 30 135 9.7 16.1 0.00 0.00 0.00 67 1017.9
20260904113016 30 141 9.7 17.7 0.00 0.00 0.00 67 1017.9
20260904112051 30 147 6.4 20.9 0.00 0.00 0.00 67 1018.0
20260904111027 30 171 9.7 16.1 0.00 0.00 0.00 65 1017.9
20260904110022 30 144 11.3 20.9 0.00 0.00 0.00 64 1018.1
20260904105017 31 146 9.7 17.7 0.00 0.00 0.00 61 1018.1
20260904104032 31 169 8.0 16.1 0.00 0.00 0.00 56 1018.0
20260904103028 32 151 4.8 14.5 0.00 0.00 0.00 51 1018.3
20260904102023 32 148 4.8 12.9 0.00 0.00 0.00 50 1018.4
20260904101018 31 186 3.2 11.3 0.00 0.00 0.00 50 1018.4
20260904100034 31 143 4.8 9.7 0.00 0.00 0.00 51 1018.5
20260904095029 31 156 6.4 14.5 0.00 0.00 0.00 52 1018.5
20260904094024 30 168 6.4 11.3 0.00 0.00 0.00 54 1018.6
20260904093019 30 146 4.8 11.3 0.00 0.00 0.00 53 1018.7
20260904092035 30 162 6.4 11.3 0.00 0.00 0.00 54 1018.6
20260904091050 30 160 3.2 6.4 0.00 0.00 0.00 53 1018.6
20260904090025 31 7 1.6 4.8 0.00 0.00 0.00 52 1018.6
20260904085020 30 345 1.6 4.8 0.00 0.00 0.00 52 1018.4
20260904084035 29 196 0.0 4.8 0.00 0.00 0.00 55 1018.4
20260904083030 28 233 1.6 4.8 0.00 0.00 0.00 57 1018.5
20260904082025 28 220 1.6 4.8 0.00 0.00 0.00 60 1018.4
20260904081021 28 296 1.6 4.8 0.00 0.00 0.00 61 1018.3
20260904080036 27 292 0.0 4.8 0.00 0.00 0.00 62 1018.3
20260904075032 27 263 1.6 3.2 0.00 0.00 0.00 64 1018.4
20260904074047 27 275 0.0 3.2 0.00 0.00 0.00 65 1018.4
20260904073022 26 315 0.0 3.2 0.00 0.00 0.00 67 1018.5
20260904072058 26 268 1.6 3.2 0.00 0.00 0.00 69 1018.6
20260904071033 25 342 0.0 1.6 0.00 0.00 0.00 71 1018.6
20260904070048 25 4 0.0 1.6 0.00 0.00 0.00 74 1018.5
20260904065023 25 299 1.6 3.2 0.00 0.00 0.00 75 1018.7
20260904064019 25 291 0.0 3.2 0.00 0.00 0.00 77 1018.6
20260904063054 24 301 0.0 1.6 0.00 0.00 0.00 80 1018.7
20260904062030 24 277 1.6 3.2 0.00 0.00 0.00 82 1018.7
20260904061025 23 292 0.0 1.6 0.00 0.00 0.00 84 1018.6
20260904060021 23 286 0.0 1.6 0.00 0.00 0.00 84 1018.6
20260904055016 23 0.0 0.0 0.00 0.00 0.00 85 1018.5
20260904054051 23 0.0 0.0 0.00 0.00 0.00 85 1018.5
20260904053027 23 0.0 0.0 0.00 0.00 0.00 85 1018.5
20260904052022 23 0.0 0.0 0.00 0.00 0.00 85 1018.6
20260904051017 23 0.0 0.0 0.00 0.00 0.00 85 1018.6
20260904050033 23 0.0 0.0 0.00 0.00 0.00 85 1018.5
20260904045028 23 0.0 0.0 0.00 0.00 0.00 86 1018.5
20260904044023 23 0.0 0.0 0.00 0.00 0.00 86 1018.6
20260904043019 23 0.0 0.0 0.00 0.00 0.00 86 1018.6
20260904042034 23 0.0 0.0 0.00 0.00 0.00 86 1018.6
20260904041029 23 301 0.0 1.6 0.00 0.00 0.00 86 1018.6
20260904040045 23 301 1.6 1.6 0.00 0.00 0.00 86 1018.7
20260904035039 23 0.0 0.0 0.00 0.00 0.00 86 1018.6
20260904034034 23 0.0 0.0 0.00 0.00 0.00 85 1018.7
20260904033030 23 0.0 0.0 0.00 0.00 0.00 85 1018.7
20260904032026 23 0.0 0.0 0.00 0.00 0.00 84 1018.7
20260904031021 24 0.0 0.0 0.00 0.00 0.00 85 1018.9
20260904030056 24 287 0.0 1.6 0.00 0.00 0.00 85 1018.8
20260904025051 24 293 0.0 1.6 0.00 0.00 0.00 85 1018.8
20260904024027 24 290 0.0 1.6 0.00 0.00 0.00 85 1018.6
20260904023022 24 0.0 0.0 0.00 0.00 0.00 85 1018.8
20260904022017 24 0.0 0.0 0.00 0.00 0.00 85 1018.9
20260904021033 24 278 0.0 1.6 0.00 0.00 0.00 85 1019.0
20260904020028 24 275 0.0 1.6 0.00 0.00 0.00 84 1019.0
20260904015023 24 262 1.6 3.2 0.00 0.00 0.00 84 1019.1
20260904014039 24 274 1.6 3.2 0.00 0.00 0.00 83 1019.1
20260904013055 24 289 1.6 3.2 0.00 0.00 0.00 83 1019.2
20260904012030 24 265 1.6 3.2 0.00 0.00 0.00 84 1019.3
20260904011025 24 268 1.6 3.2 0.00 0.00 0.00 85 1019.4
20260904010021 25 269 0.0 3.2 0.00 0.00 0.00 86 1019.5
20260904005016 25 235 0.0 1.6 0.00 0.00 0.00 86 1019.5
20260904004031 25 273 1.6 3.2 0.00 0.00 0.00 86 1019.5
20260904003027 25 253 3.2 6.4 0.00 0.00 0.00 86 1019.4
20260904002021 25 260 3.2 6.4 0.00 0.00 0.00 86 1019.6
20260904001017 25 278 1.6 4.8 0.00 0.00 0.00 87 1019.6
20260904000033 25 284 1.6 3.2 0.00 0.00 0.00 87 1019.7
20260903235027 25 291 1.6 3.2 0.00 0.00 0.00 88 1019.8
20260903234022 25 306 1.6 4.8 0.00 0.00 0.00 88 1019.8
20260903233018 25 287 1.6 3.2 0.00 0.00 0.00 87 1019.9
20260903232034 25 298 1.6 4.8 0.00 0.00 0.00 87 1019.9
20260903231028 25 303 0.0 3.2 0.00 0.00 0.00 87 1019.9
20260903230024 25 0.0 0.0 0.00 0.00 0.00 87 1019.9
20260903225020 25 319 0.0 3.2 0.00 0.00 0.00 87 1020.0
20260903224035 25 0.0 0.0 0.00 0.00 0.00 87 1020.0
20260903223030 25 39 0.0 1.6 0.00 0.00 0.00 87 1020.1
20260903222026 25 39 0.0 1.6 0.00 0.00 0.00 87 1020.2
20260903221021 25 0.0 0.0 0.00 0.00 0.00 87 1020.2
20260903220016 25 0.0 0.0 0.00 0.00 0.00 87 1020.2
20260903215032 26 0.0 0.0 0.00 0.00 0.00 87 1020.4
20260903214047 26 43 0.0 1.6 0.00 0.00 0.00 87 1020.5
20260903213022 26 0.0 0.0 0.00 0.00 0.00 87 1020.6
20260903212038 26 0.0 0.0 0.00 0.00 0.00 87 1020.6
20260903211053 26 0.0 0.0 0.00 0.00 0.00 87 1020.6
20260903210028 26 0.0 0.0 0.00 0.00 0.00 87 1020.7
20260903205023 26 45 0.0 1.6 0.00 0.00 0.00 86 1020.6
20260903204018 26 48 0.0 1.6 0.00 0.00 0.00 86 1020.5
20260903203053 26 62 0.0 4.8 0.00 0.00 0.00 86 1020.3
20260903202030 26 67 0.0 1.6 0.00 0.00 0.00 86 1020.3
20260903201024 26 71 0.0 1.6 0.00 0.00 0.00 86 1020.4
20260903200019 26 63 1.6 3.2 0.00 0.00 0.00 86 1020.1
20260903195035 26 67 0.0 3.2 0.00 0.00 0.00 86 1020.0
20260903194030 26 80 1.6 6.4 0.00 0.00 0.00 85 1020.0
20260903193025 26 72 1.6 4.8 0.00 0.00 0.00 85 1019.8
20260903192020 26 71 1.6 6.4 0.00 0.00 0.00 85 1019.6
20260903191016 26 80 1.6 4.8 0.00 0.00 0.00 85 1019.5
20260903190032 26 88 3.2 6.4 0.00 0.00 0.00 84 1019.3
20260903185027 26 98 4.8 9.7 0.00 0.00 0.00 84 1019.2
20260903184022 26 89 3.2 6.4 0.00 0.00 0.00 84 1019.2
20260903183017 26 91 4.8 11.3 0.00 0.00 0.00 83 1019.1
20260903182033 26 93 8.0 12.9 0.00 0.00 0.00 83 1019.1
20260903181028 26 84 4.8 12.9 0.00 0.00 0.00 83 1019.0
20260903180104 26 95 8.0 14.5 0.00 0.00 0.00 82 1019.0
20260903175020 27 91 6.4 14.5 0.00 0.00 0.00 82 1018.9